Theta_e
330 330 330 329 331 329 327 329 332 333 333 331 324 317 317 320 322 325 324 324 325 324 325 323 323 326 324 322 323 325 325 323 322 323 321 319 320 318 318 319 317 317 321 323 321 320 321 321 323 324 324 321 318 320 324 329 329 327 329 328 326 322
328 330 332 330 331 332 330 329 330 333 333 332 325 315 316 321 325 326 323 325 325 323 326 328 328 331 328 323 321 323 324 323 322 324 322 320 320 318 318 318 318 320 321 322 319 318 318 317 319 322 323 321 317 314 316 325 328 329 330 329 325 318
328 328 331 332 331 331 332 331 331 334 333 331 326 315 315 321 327 329 325 325 325 325 329 330 329 333 333 329 326 322 322 323 322 324 323 321 320 317 318 320 320 321 321 321 317 317 321 317 315 319 319 319 316 314 318 324 326 328 327 327 327 321
330 329 331 333 332 331 332 332 331 333 332 331 327 317 314 318 324 330 328 326 326 328 331 331 330 331 333 333 331 324 320 322 323 323 324 322 322 319 319 321 323 324 324 325 322 322 327 322 315 316 315 318 318 322 329 327 323 326 326 327 330 326
328 330 332 332 332 332 332 332 332 333 331 330 329 323 318 318 323 330 332 331 330 331 331 330 331 331 333 332 332 328 322 322 323 324 324 323 324 322 322 322 324 325 325 328 328 328 331 326 322 318 311 317 323 328 334 326 323 329 328 327 330 327
326 327 330 331 330 330 331 332 333 333 332 331 331 329 326 326 328 332 334 333 333 332 332 332 331 331 332 331 331 330 325 324 324 325 325 324 325 325 324 323 323 324 324 327 328 328 330 329 328 322 313 318 327 331 333 327 325 332 330 328 329 326
325 323 325 330 329 329 330 332 333 332 333 332 331 331 331 332 333 333 333 332 333 333 332 332 333 332 331 330 331 330 327 326 326 327 325 324 325 326 325 325 325 325 325 327 327 326 328 330 330 328 323 324 330 331 331 329 326 330 332 331 330 327
323 322 325 329 328 328 329 332 333 333 334 332 331 332 332 333 333 334 333 332 333 334 332 332 332 332 331 330 331 331 329 329 329 328 326 325 327 327 328 329 328 328 327 326 328 326 326 329 329 330 330 330 330 330 330 330 329 327 328 328 328 326
319 320 324 327 327 328 329 330 332 332 334 334 333 334 333 332 333 334 334 332 332 332 333 333 332 332 332 330 331 330 329 330 329 330 328 328 331 329 329 331 329 329 329 327 327 326 326 328 328 329 331 331 331 330 329 330 331 330 325 326 327 326
319 320 321 324 327 328 328 328 328 328 329 331 332 334 334 334 333 333 332 331 331 331 331 333 332 332 331 330 330 328 328 330 330 331 330 329 332 330 330 332 329 329 329 328 328 326 326 327 329 328 329 331 331 331 330 329 330 332 329 328 328 328
316 319 321 323 325 326 326 326 325 326 325 324 326 329 332 334 334 332 331 331 331 331 330 332 334 333 332 331 332 330 326 329 329 331 332 331 332 332 331 331 329 329 329 328 328 328 326 327 329 329 329 330 331 331 331 331 329 330 330 330 329 329
309 313 320 321 321 323 325 323 322 326 324 321 320 321 325 329 332 332 331 332 332 332 332 332 334 334 333 332 333 332 327 328 329 331 333 332 332 332 332 332 330 330 329 329 329 329 328 328 328 330 330 330 331 331 331 332 330 329 330 330 330 330
308 309 316 319 319 319 322 321 321 324 320 318 320 319 319 322 327 331 332 332 331 332 332 332 333 334 334 333 333 334 331 330 330 330 333 333 332 332 333 332 330 329 330 330 329 329 330 329 329 330 330 330 330 330 331 331 331 329 329 329 330 329
310 307 310 315 316 316 318 319 320 319 313 315 322 322 322 317 317 323 327 330 330 330 330 330 331 332 333 333 333 334 333 335 334 333 333 333 332 331 332 333 331 330 330 328 326 327 329 329 330 329 329 330 330 329 330 330 331 331 329 329 329 329
312 307 306 310 311 312 316 316 315 313 307 312 321 323 324 320 316 318 319 323 326 325 327 329 330 331 332 332 333 333 333 334 336 335 334 333 332 331 332 333 333 332 330 327 326 327 328 329 330 329 328 329 330 330 329 329 331 331 331 330 329 329
309 307 306 307 307 307 311 313 310 308 306 310 318 322 323 320 320 323 319 318 319 318 320 323 325 326 327 330 331 330 331 331 331 333 334 333 331 332 332 332 333 333 331 328 328 328 328 329 330 330 329 328 328 329 329 329 330 331 331 331 330 329
308 307 307 307 308 308 311 315 312 310 310 311 315 317 316 317 320 324 323 322 322 317 313 314 317 319 321 326 329 328 329 331 329 329 331 332 330 331 332 331 331 333 331 330 330 329 329 329 329 328 328 327 327 328 329 329 329 330 331 331 331 330
308 307 308 308 311 312 313 316 315 315 315 315 317 312 311 317 321 321 322 323 321 316 313 311 312 316 318 323 326 326 328 329 328 327 327 328 328 328 330 329 329 330 330 329 330 330 330 329 329 329 328 328 326 326 327 328 329 329 329 331 331 330
308 308 308 310 314 316 315 315 315 315 315 315 317 313 313 318 318 320 323 322 315 310 312 311 311 313 314 317 319 320 324 325 326 327 327 328 327 325 325 326 327 329 329 327 327 328 329 330 330 330 329 328 326 326 325 325 328 328 328 330 331 331
308 309 311 315 317 317 315 314 313 313 313 314 314 314 317 317 314 318 322 319 311 306 309 309 309 311 310 311 312 313 316 317 319 322 325 328 328 326 325 324 325 326 327 327 326 325 326 327 329 330 329 327 326 326 325 325 327 328 329 330 330 331
310 310 316 319 316 315 313 313 313 312 312 313 311 311 316 314 308 309 310 307 305 305 306 306 307 308 308 309 308 309 311 313 315 318 323 328 329 329 327 326 326 326 325 326 327 326 325 325 327 329 329 327 325 324 326 327 327 327 327 329 330 330
313 310 316 317 313 312 311 311 312 311 311 313 311 308 311 309 305 308 309 305 303 306 307 305 305 304 305 307 306 308 308 310 314 316 320 325 328 330 331 330 328 326 325 325 326 327 327 325 327 329 329 328 325 324 326 328 328 328 327 328 329 328
317 312 312 314 315 313 310 310 310 309 310 313 312 309 309 307 305 308 313 313 311 311 308 304 305 305 307 308 306 307 308 309 311 313 317 319 322 326 329 331 331 329 326 326 326 327 327 326 326 328 328 329 328 326 327 328 328 329 328 328 329 328
319 316 312 313 315 314 310 311 310 310 310 312 312 312 310 308 306 306 312 316 315 312 308 306 306 308 312 312 310 311 312 313 313 315 318 318 317 319 322 327 330 331 330 327 328 328 329 326 326 327 329 330 329 328 329 329 329 328 328 329 329 329
321 319 315 313 313 312 312 312 311 312 314 315 314 313 309 307 306 306 310 313 314 313 310 309 308 307 311 313 315 316 315 315 316 317 319 319 318 316 315 318 323 328 331 331 329 330 330 329 328 328 329 329 329 328 329 329 329 329 329 329 329 329
321 320 317 314 313 313 313 313 313 315 317 316 315 313 309 307 307 306 307 307 310 312 310 311 310 308 310 313 316 316 315 316 316 317 319 319 318 316 314 314 317 321 326 330 331 331 332 331 330 330 329 328 328 328 329 329 329 330 330 330 330 330
321 321 319 315 314 314 313 314 314 315 314 313 314 313 309 307 308 307 306 305 306 307 309 315 315 312 311 312 315 315 315 316 316 317 319 320 318 316 317 318 319 319 319 322 325 327 331 332 332 331 330 328 328 329 329 329 329 329 329 330 330 330
321 320 319 316 315 314 314 316 315 313 313 313 314 312 310 309 308 307 306 306 306 305 307 313 315 314 313 311 313 314 313 315 316 317 319 321 321 319 318 319 321 323 322 320 320 321 326 331 332 332 330 328 327 327 328 328 328 327 327 329 330 330
321 321 320 318 316 314 315 317 316 314 315 315 314 312 313 313 309 306 306 306 306 306 306 307 308 311 312 309 309 310 311 312 314 315 316 318 322 323 323 322 321 323 325 324 322 322 324 327 329 331 331 328 325 324 324 325 327 326 326 326 327 330
321 321 320 318 316 314 315 317 316 315 316 316 315 313 313 313 308 307 308 307 306 307 307 307 306 307 308 307 306 306 306 307 309 312 312 314 317 320 323 323 321 321 324 326 325 324 325 325 326 329 330 330 327 325 324 324 326 326 326 326 326 328
321 321 319 317 316 315 314 315 314 315 316 314 314 312 310 312 310 308 308 308 307 308 308 307 306 306 307 306 305 305 305 305 305 306 308 310 312 314 318 321 322 321 321 324 325 325 325 325 326 327 328 329 328 327 326 326 326 326 325 325 325 326
321 321 318 316 316 315 314 314 314 315 315 313 313 310 309 311 312 308 307 307 308 309 310 311 310 309 309 307 305 306 305 305 305 304 305 306 307 310 313 316 318 319 319 320 321 323 324 324 325 326 326 326 327 326 326 326 327 326 326 325 325 325
321 321 319 316 315 316 315 314 314 315 315 314 312 310 309 310 310 307 307 308 308 308 309 311 312 310 308 306 305 306 305 305 305 305 305 304 303 305 307 309 311 314 317 319 319 320 322 323 324 325 325 324 325 325 325 326 326 326 326 326 325 325
320 322 320 317 315 316 316 315 315 314 314 314 312 311 309 308 308 308 308 308 307 306 306 307 309 308 307 305 305 305 305 305 305 305 305 305 304 303 303 306 308 309 312 315 317 319 320 321 323 324 324 324 324 324 325 325 325 325 326 326 325 325
318 322 321 318 315 316 316 314 314 314 314 313 312 310 309 307 308 308 307 306 306 306 306 306 307 308 307 306 305 305 305 305 305 305 305 304 304 303 303 304 306 308 309 309 313 316 318 319 321 322 323 323 323 323 324 324 324 325 325 326 325 325
315 321 321 318 316 315 315 314 313 313 313 313 312 310 309 308 308 308 306 306 306 306 306 306 306 306 306 306 305 305 304 304 304 305 305 305 304 304 304 304 305 307 308 308 310 314 317 318 318 319 320 322 322 323 324 323 323 323 324 325 325 324
314 319 320 318 316 314 313 313 312 312 312 312 311 310 309 308 308 307 306 306 306 306 306 305 306 305 306 305 305 304 304 303 304 305 306 306 306 306 305 304 305 307 309 311 313 315 317 318 318 317 318 320 321 321 322 323 323 322 322 323 323 323
Wind_Speed
1 1 2 4 5 7 7 8 7 7 7 5 4 4 7 9 9 8 8 9 10 8 8 9 11 13 13 12 10 9 8 7 5 5 3 2 3 4 5 6 6 6 8 8 8 8 8 8 8 9 9 13 18 18 14 15 17 9 5 10 6 7
3 2 2 4 5 7 8 8 8 7 8 6 4 5 7 8 9 8 8 10 9 7 9 11 13 14 14 14 11 9 9 8 7 5 4 2 2 4 5 6 7 8 8 7 8 7 6 7 9 9 9 11 16 18 14 12 14 9 7 9 6 8
5 2 2 3 4 6 8 9 8 8 9 7 6 7 8 9 9 9 9 10 9 9 10 11 12 13 14 15 14 10 9 9 8 6 5 3 3 4 7 9 9 9 9 8 8 7 3 4 7 7 9 11 15 16 10 8 10 7 7 8 7 8
4 4 2 2 3 5 7 9 9 9 9 9 8 8 8 9 10 10 9 10 11 10 9 9 11 12 12 13 14 11 9 9 9 8 6 5 5 6 8 11 12 10 10 9 7 6 1 2 4 4 8 14 15 12 4 7 9 4 8 8 8 9
3 2 4 2 3 4 6 9 10 10 10 11 9 9 9 9 9 9 10 11 11 10 8 9 11 11 12 12 12 11 10 10 11 9 7 7 6 6 7 10 11 10 9 9 8 5 4 6 3 3 10 15 13 12 5 8 9 5 11 10 9 11
3 3 1 6 6 3 7 9 9 9 10 12 12 11 10 9 9 10 12 11 9 9 9 10 11 12 12 12 13 13 11 11 12 11 9 9 8 7 7 7 8 8 8 8 7 7 7 7 5 3 8 13 12 10 7 6 9 7 10 10 11 12
4 6 5 3 7 5 4 8 10 11 11 12 13 13 12 11 12 13 14 11 9 10 9 9 11 13 13 12 14 14 12 13 13 12 11 11 10 8 7 7 9 9 8 7 7 9 8 6 6 3 4 7 11 9 8 5 9 9 9 10 10 12
6 6 8 5 2 3 4 3 8 10 11 14 14 14 14 15 16 15 14 13 13 12 11 11 12 14 15 14 14 16 16 15 14 15 13 11 11 8 8 6 6 7 7 6 7 7 7 8 6 5 5 4 8 9 7 6 7 9 11 11 10 10
5 5 7 8 3 3 1 1 4 7 10 14 15 15 14 16 17 15 14 14 15 15 13 12 12 14 16 14 13 15 17 17 15 16 14 12 13 9 9 9 5 6 7 6 8 7 6 8 7 6 6 6 7 8 8 10 8 7 11 12 11 11
6 7 5 5 4 5 5 2 2 4 7 10 14 16 15 16 16 16 16 15 15 15 14 12 12 13 15 14 13 14 16 18 18 18 16 15 16 11 11 13 10 9 10 9 9 7 6 7 8 7 6 7 9 9 9 10 12 8 8 11 12 12
8 10 7 4 5 5 4 3 3 1 5 7 9 11 14 16 17 17 17 15 15 16 16 15 13 14 15 14 13 14 16 18 21 21 19 18 18 15 13 13 11 11 12 10 9 8 6 7 8 7 7 8 9 10 10 9 11 11 7 12 13 12
6 11 9 6 5 6 4 2 4 2 5 6 6 7 8 12 16 18 17 14 15 17 18 17 15 14 16 16 13 14 17 17 20 21 21 21 18 16 15 12 10 11 13 10 8 8 6 7 9 8 8 9 10 9 10 10 10 11 11 11 14 13
5 9 10 9 5 6 6 3 4 3 3 3 4 5 4 5 10 15 17 15 14 16 17 17 16 14 14 16 15 16 16 16 20 21 21 21 15 13 15 13 11 11 13 11 11 10 7 8 9 9 10 10 11 10 9 11 11 11 13 11 13 14
6 6 8 10 7 7 8 5 3 2 1 3 2 3 6 5 5 10 13 16 15 15 17 18 17 16 13 13 14 15 14 13 18 22 23 19 14 13 14 13 12 11 12 12 11 10 9 8 8 10 12 12 11 11 12 11 11 12 13 14 13 14
7 7 7 8 8 9 10 7 4 3 3 5 5 1 4 4 3 6 8 12 14 13 16 19 18 16 14 14 12 12 13 10 11 16 19 17 13 12 11 12 13 12 12 10 7 7 8 8 8 10 11 12 11 11 14 11 12 13 12 14 15 13
8 8 9 8 8 8 10 8 5 6 6 6 7 4 1 0 1 4 6 7 11 11 11 14 15 14 14 15 13 12 13 12 11 10 12 13 11 12 11 11 13 12 11 9 7 7 7 8 10 10 10 11 12 12 12 13 13 15 13 13 15 15
9 9 9 8 9 8 9 7 6 9 8 6 6 4 1 1 2 1 2 4 10 10 8 9 11 12 13 14 14 15 15 15 16 13 12 11 11 13 12 11 14 12 9 8 7 7 8 9 10 11 10 11 13 14 13 13 14 14 13 13 14 15
8 8 7 7 8 8 9 8 8 9 9 7 4 3 4 3 2 3 3 7 10 7 6 8 9 11 13 13 13 15 17 18 18 18 18 15 12 13 13 13 15 13 11 10 9 10 10 9 9 10 11 11 12 14 16 14 14 15 14 14 15 14
6 5 5 8 8 7 9 9 8 7 6 6 4 7 5 4 3 2 5 9 8 6 8 10 10 11 13 14 15 15 16 18 19 20 21 21 18 17 17 16 16 16 15 14 14 14 12 12 11 10 12 12 9 11 15 15 16 18 15 14 15 13
5 4 5 7 6 6 6 5 5 5 5 6 4 7 6 2 0 4 8 9 8 8 10 11 12 13 13 15 16 16 16 18 20 21 22 23 21 20 20 20 18 18 18 17 17 17 16 16 14 10 11 13 10 10 14 14 17 19 17 15 16 17
7 5 5 5 6 7 6 4 4 4 5 4 5 7 5 6 6 4 7 7 8 8 10 11 12 14 14 15 15 15 16 17 17 18 19 21 23 22 22 22 21 22 21 21 20 19 18 18 17 13 10 13 14 12 13 14 16 19 18 18 19 20
8 7 8 7 8 7 6 5 4 2 4 1 3 6 5 11 14 10 8 7 5 6 10 11 12 14 14 14 14 14 14 15 14 13 13 16 20 22 23 23 23 24 25 25 23 22 20 19 19 17 12 12 14 13 14 15 17 18 18 19 21 21
11 10 10 9 7 6 6 4 4 3 1 1 3 9 11 15 19 14 9 8 5 5 10 10 11 11 11 13 13 12 12 12 11 11 11 11 14 17 21 24 25 26 26 27 27 25 24 22 21 20 17 16 15 12 15 16 19 20 19 20 21 21
12 11 10 9 8 8 6 4 4 3 2 1 3 8 9 12 17 16 10 6 6 8 11 9 8 9 8 9 9 10 10 9 9 9 9 10 11 13 15 20 24 27 28 29 28 27 27 26 24 22 18 17 15 12 14 16 20 23 21 20 21 23
14 12 12 10 10 9 6 6 4 2 4 6 6 3 5 9 13 14 10 6 8 11 9 6 7 10 10 8 8 9 9 9 9 8 8 9 10 12 13 15 18 24 29 31 31 30 29 29 28 26 22 20 15 12 14 12 14 21 22 21 22 24
16 14 14 12 10 9 7 6 2 2 3 4 3 3 5 9 12 13 12 10 8 9 9 8 6 7 9 8 8 10 10 10 10 8 8 10 10 12 13 14 15 19 24 29 32 32 31 31 30 29 27 25 21 18 16 9 6 12 16 20 22 21
18 16 15 14 11 10 8 6 4 5 5 4 6 7 7 8 10 12 13 13 11 9 9 8 7 5 5 6 7 8 9 10 11 10 8 8 11 13 14 14 14 15 19 22 27 29 31 32 31 30 29 28 27 23 21 18 13 9 8 14 19 19
19 16 16 16 13 10 8 8 8 8 6 6 8 8 8 7 8 10 11 12 12 11 8 4 6 7 5 5 7 8 9 10 11 10 9 7 8 11 13 14 14 14 17 19 22 25 28 30 30 31 30 30 30 27 26 27 24 17 11 11 15 18
19 17 18 17 14 11 9 11 10 6 6 8 8 5 4 4 5 7 8 9 10 10 10 7 5 5 5 6 5 6 8 10 12 11 12 10 8 8 11 14 15 15 16 18 21 22 24 26 28 29 31 31 32 31 31 32 30 26 21 17 14 13
20 19 19 19 16 13 12 13 11 7 9 9 7 3 3 5 5 6 6 7 8 8 8 8 8 6 6 7 7 8 8 8 10 12 14 14 13 12 11 12 15 16 17 18 20 22 23 24 25 27 31 32 33 33 34 36 36 32 28 25 22 17
21 20 20 20 18 15 14 14 12 10 11 10 9 7 7 7 6 5 4 5 6 5 5 6 8 8 9 10 10 11 11 10 10 11 12 13 14 14 13 12 13 15 18 19 19 20 21 23 24 26 29 32 34 35 35 37 39 36 33 32 30 27
22 21 21 20 18 17 16 15 13 13 13 12 12 11 8 8 8 7 7 6 6 4 4 5 6 6 7 10 11 12 14 14 14 14 14 14 14 15 16 16 15 15 17 18 19 20 21 22 24 26 28 30 32 34 34 36 38 38 37 36 33 33
23 23 22 20 19 18 17 16 15 16 16 15 14 13 11 10 10 9 8 7 6 6 5 5 6 7 9 11 13 14 15 16 17 17 18 18 18 17 18 18 19 19 18 18 19 20 22 22 23 25 27 29 31 33 34 34 37 38 37 35 32 32
23 22 22 21 20 20 18 16 17 18 18 17 16 15 14 13 12 11 9 9 9 9 8 8 9 11 13 14 15 16 18 18 19 20 21 21 21 20 20 19 20 21 21 21 21 21 24 24 24 25 26 28 31 33 34 34 35 38 37 34 32 32
23 22 22 22 21 20 18 17 17 18 18 18 18 17 16 14 14 13 11 11 11 11 11 11 11 13 15 17 18 19 21 22 23 24 24 23 22 21 20 21 22 22 23 23 23 23 25 25 26 27 26 27 29 32 35 35 37 38 38 38 37 36
23 22 23 23 21 19 17 16 17 17 18 18 18 18 17 15 16 15 13 12 12 13 13 13 13 14 16 18 20 22 23 25 26 26 25 23 20 19 20 22 23 23 23 23 23 23 24 26 27 28 28 27 29 32 33 34 37 39 40 41 41 42
22 22 23 22 20 17 15 15 16 16 17 18 19 19 17 16 17 16 14 13 13 14 14 15 15 16 17 19 21 23 25 25 25 23 22 20 17 17 19 23 24 23 22 22 22 22 23 25 26 27 29 28 30 31 31 31 34 38 41 42 42 42
Wind_Direction
285 233 226 219 230 234 229 221 217 212 203 207 208 171 164 175 183 198 210 205 202 204 213 206 197 197 188 187 192 186 176 172 180 178 164 174 195 200 203 195 187 188 191 189 185 192 195 191 198 192 168 163 166 160 145 129 122 111 229 234 232 225
319 261 234 218 220 224 226 220 213 210 204 211 206 173 161 163 175 194 204 202 206 211 212 203 199 199 188 189 195 185 180 179 187 182 159 150 160 179 176 170 165 166 175 180 177 175 180 194 202 197 178 166 167 176 170 140 129 137 225 243 242 233
341 301 216 221 230 219 220 213 203 204 201 208 202 177 165 160 170 186 194 198 209 214 213 203 198 200 188 190 196 190 190 187 188 183 168 151 129 147 156 152 147 146 151 154 171 166 146 196 198 202 184 162 162 171 174 166 150 154 226 249 258 243
9 339 289 231 232 222 216 208 202 205 202 205 200 184 173 170 177 184 190 195 208 215 215 204 197 202 196 195 194 191 201 195 190 186 178 172 141 136 139 136 134 138 138 128 135 146 187 250 174 188 174 161 157 146 166 206 163 163 239 241 260 258
90 8 328 298 242 226 206 203 208 212 206 204 197 190 185 184 190 193 203 205 209 218 222 216 202 196 198 204 199 195 207 202 195 192 187 189 163 149 145 135 136 138 134 118 107 136 233 264 218 168 165 163 147 129 184 214 155 189 249 246 263 264
145 163 351 330 311 273 206 205 216 216 205 202 195 194 194 196 207 212 220 219 215 219 223 224 211 199 200 207 206 203 209 207 202 197 195 199 182 174 169 138 128 127 116 113 129 173 213 255 252 200 163 159 136 140 203 197 154 193 245 252 261 265
156 157 132 346 317 317 249 221 219 215 201 198 194 196 199 200 213 219 222 222 223 229 226 224 217 211 209 207 209 211 211 207 206 202 199 203 195 188 176 130 104 111 101 108 163 196 202 223 248 227 171 156 138 164 212 188 173 202 237 251 255 263
153 153 139 114 332 331 334 245 215 217 207 204 200 198 199 202 214 221 220 217 221 231 235 233 224 216 214 212 214 216 214 208 206 207 206 203 198 184 174 155 109 124 110 109 180 208 206 212 232 208 190 196 164 175 202 187 196 224 237 254 263 265
141 149 153 124 123 182 112 286 232 224 209 213 215 205 198 202 212 219 222 220 219 226 231 233 226 216 214 215 217 214 214 212 206 212 210 202 203 185 172 182 173 172 159 154 195 209 208 215 237 232 203 205 194 189 198 186 185 232 246 251 265 272
130 119 142 139 146 172 157 152 266 256 222 219 224 217 208 207 211 218 225 227 224 228 231 230 224 214 208 208 215 210 212 215 212 216 209 199 209 195 172 182 175 169 178 185 202 208 210 217 235 251 237 214 206 202 212 208 187 194 248 254 257 267
155 136 124 151 164 146 140 149 99 345 241 217 221 222 220 220 221 222 226 227 226 232 239 237 228 217 211 209 211 208 208 213 215 220 213 203 210 201 182 188 179 165 175 184 198 209 214 217 220 234 242 234 226 208 206 234 216 184 216 258 260 265
167 153 134 133 151 130 114 146 132 134 244 236 244 235 223 226 228 229 227 224 221 225 236 241 237 225 216 214 215 210 207 210 214 219 219 211 207 198 188 194 198 182 174 174 191 207 221 222 219 228 236 233 240 231 203 220 234 194 190 240 260 265
145 162 155 136 128 139 122 91 133 159 249 264 296 287 263 238 230 232 231 231 226 224 231 239 248 242 222 217 219 214 206 209 213 217 222 215 202 193 188 194 208 198 178 176 192 200 219 230 221 227 233 231 240 246 219 211 229 210 186 215 254 266
121 150 163 148 136 141 127 99 116 156 193 138 75 324 293 284 254 242 237 237 235 235 238 241 253 258 244 232 227 216 209 212 213 215 219 213 201 199 193 192 202 206 197 190 195 198 210 228 234 239 232 227 240 249 240 222 227 224 194 199 231 259
123 126 134 142 140 140 137 127 121 102 98 124 119 93 301 306 296 275 258 243 238 239 242 242 250 261 257 250 244 225 218 220 216 214 217 210 205 207 194 192 198 206 213 199 190 207 214 225 242 257 243 221 219 238 254 241 223 229 214 203 208 223
122 114 110 112 113 123 130 118 90 82 87 113 122 118 286 306 98 302 296 265 252 247 244 245 248 256 257 253 252 240 225 224 223 215 216 213 212 214 202 206 209 203 212 202 187 210 224 233 241 253 255 235 216 215 246 251 230 227 223 216 212 206
119 106 101 100 97 92 97 90 61 59 58 78 111 123 147 87 120 217 284 270 266 262 250 247 244 248 252 249 249 245 238 235 234 229 229 227 219 218 213 221 223 208 209 212 204 216 223 234 250 255 247 240 232 214 219 245 243 231 220 217 225 219
126 108 89 87 91 77 76 74 55 52 45 48 35 26 83 108 181 202 221 237 255 270 264 250 240 242 245 244 244 245 245 243 243 242 243 244 236 231 230 231 230 219 213 220 224 227 228 236 248 253 245 244 249 230 216 227 241 241 226 213 221 225
132 118 95 91 95 79 78 76 67 64 50 59 10 356 59 131 194 199 235 240 243 251 258 257 253 254 250 245 244 244 246 245 244 245 246 246 243 240 242 241 232 225 223 227 231 231 237 249 245 243 245 249 266 253 231 221 230 243 237 218 220 222
165 146 97 89 102 100 101 103 92 85 57 66 42 6 13 4 246 206 234 252 260 249 243 249 256 263 264 258 254 250 249 248 246 248 248 245 242 238 242 245 237 232 231 231 235 236 240 244 240 247 246 243 263 268 249 232 227 236 237 230 225 222
195 172 121 120 152 147 137 128 108 91 69 65 51 36 2 350 359 306 273 270 271 264 251 248 249 252 257 262 266 263 257 255 253 255 255 247 243 238 238 242 238 236 236 235 237 237 241 242 238 247 253 252 262 256 248 247 238 232 231 233 231 227
203 182 173 187 187 180 178 157 155 122 76 60 355 29 12 7 10 354 338 324 300 276 262 257 253 251 252 255 259 263 263 262 260 260 259 249 244 242 239 238 235 238 240 240 242 238 237 240 239 242 244 255 263 247 240 245 243 239 231 231 236 234
210 199 198 196 193 212 221 200 217 267 46 228 323 18 17 10 11 4 354 343 329 287 279 278 268 259 255 254 251 251 255 259 260 258 258 255 250 246 242 239 235 237 239 241 245 242 238 236 238 242 239 250 260 243 237 235 233 238 234 230 236 238
211 209 214 199 198 230 246 248 255 290 343 52 57 42 27 9 6 5 4 342 311 303 305 299 277 258 244 248 247 243 243 244 246 246 252 261 262 256 248 244 239 236 237 239 240 240 241 239 241 244 236 242 255 241 237 238 232 233 233 229 229 236
210 208 220 218 221 242 253 259 272 5 35 69 93 73 15 5 5 8 8 340 312 313 318 311 282 263 246 237 233 236 236 233 232 231 239 247 255 261 259 254 247 240 237 238 239 240 242 241 243 245 235 231 240 239 242 248 237 232 232 229 227 233
208 208 222 232 235 246 250 259 276 74 75 98 148 261 340 355 359 6 9 4 341 322 325 336 321 275 253 240 232 237 239 238 237 231 236 241 244 252 260 263 258 250 244 242 243 244 244 245 244 240 232 227 226 228 238 250 255 244 237 231 229 234
209 210 221 234 238 242 244 240 201 184 210 199 214 259 307 337 352 2 8 13 10 356 346 344 340 317 276 253 247 251 247 241 241 236 239 249 249 246 247 256 259 254 250 246 247 247 244 244 242 233 228 226 223 226 241 254 266 278 266 236 229 231
211 212 222 236 239 236 230 220 214 217 222 204 214 257 301 327 351 1 6 13 14 13 15 354 322 323 314 285 267 266 263 255 249 243 240 247 260 262 253 250 252 253 254 250 248 248 246 244 241 236 232 227 224 227 240 251 255 261 271 261 241 234
207 208 223 236 238 232 216 214 225 223 201 205 223 262 304 305 339 356 359 6 10 11 14 13 353 335 326 321 304 287 281 272 264 256 249 242 238 250 251 247 244 243 250 254 252 250 249 246 243 241 237 231 229 231 235 241 247 249 251 259 259 249
204 205 223 235 239 235 217 221 232 215 200 214 227 218 214 247 295 337 346 354 2 5 2 0 360 353 341 344 345 336 329 308 290 282 274 264 249 242 242 248 248 240 241 250 255 255 252 248 245 242 240 235 234 234 234 236 240 243 243 247 251 250
204 207 225 234 240 241 231 234 238 225 221 228 234 232 235 250 275 309 320 329 342 350 341 334 339 343 339 341 344 339 337 332 317 308 297 282 268 260 254 250 253 249 246 249 253 257 257 252 246 242 241 240 239 238 238 238 237 239 241 244 248 249
204 207 224 235 238 242 245 246 243 240 242 243 249 251 250 247 255 281 298 305 319 326 315 313 321 325 321 322 327 327 326 325 322 320 315 301 286 277 268 259 254 250 249 251 253 258 264 261 253 247 243 242 241 240 242 242 238 238 243 246 249 253
206 206 218 234 239 240 249 253 249 251 253 251 254 254 249 248 255 273 289 292 299 301 289 281 283 285 291 301 311 315 316 318 317 314 312 308 299 289 282 273 265 256 248 246 247 252 260 263 260 255 249 244 243 242 244 244 240 239 241 243 244 246
208 207 215 232 242 243 249 255 253 253 254 252 251 249 249 251 255 264 272 277 287 295 291 282 280 284 291 300 307 309 309 309 308 306 304 302 298 292 286 279 270 263 257 250 246 245 250 256 260 259 254 249 248 248 247 246 242 240 237 237 238 238
208 207 215 231 242 246 250 253 252 250 251 251 249 247 246 245 249 257 264 273 282 290 292 291 288 287 291 298 305 308 310 309 307 304 300 296 292 287 280 274 270 266 263 259 254 249 247 250 255 258 257 256 255 251 249 248 245 241 238 236 237 238
213 209 217 231 241 248 252 251 251 250 249 248 247 246 243 238 244 254 263 271 279 286 291 292 290 289 291 297 304 308 310 311 309 304 296 289 285 281 272 264 264 266 264 259 255 252 250 250 250 251 253 256 257 253 249 249 248 245 243 241 241 241
217 211 218 232 241 249 252 250 252 252 249 246 242 241 239 237 244 254 262 268 276 282 287 290 291 292 294 298 303 307 310 313 310 303 294 286 282 280 272 262 257 259 261 258 252 249 250 252 251 252 252 252 256 257 254 253 251 249 247 246 247 246